EFKE

Details ICAO EFKE (KEM)
Name Kemi Tornio
Region Finland
Timezone Europe/Helsinki (UTC+3.0)
Plans Departing 16
Arriving 10
Stats Elevation 61 ft / 19 m (AMSL)
Location 65.781889° 24.582436°
Runways 1
Magnetic Variation 10.680° E
Sunrise 2018-05-22 00:21:17 UTC / 2018-05-22 03:21:17 Local
Sunset 2018-05-22 20:18:14 UTC / 2018-05-22 23:18:14 Local
Advertisement - Login to hide

Runways

ID Width Length Bearing (true) Bearing (mag) Surface Threshold Offset Overrun Length
18 157 ft / 48 m 8,192 ft / 2,497 m 187.51° 176.83° Asphalt 0 ft / 0 m 95 ft / 29 m
36 157 ft / 48 m 8,192 ft / 2,497 m 7.50° 356.82° Asphalt 0 ft / 0 m 190 ft / 58 m

Approach Navaids

Runway Type Ident Frequency Range Bearing (true) Bearing (mag) Slope Elevation
18 Localiser KE 110.90 MHz 18 nm / 33 km 187.51° 176.83° - 61 ft / 19 m (AMSL)
18 Glidescope KE 110.90 MHz 10 nm / 19 km 187.51° 176.83° 3.50° 61 ft / 19 m (AMSL)
18 DME KE 110.90 MHz 18 nm / 33 km - - - 92 ft / 28 m (AMSL)

Map

Weather


0- 5 10 15 20 25 30 35+ Temperature / ° C

Clouds and Precipitation
Forecast for 2018-05-22 00:00 UTC. Updated 3 hours ago

Ground ~20,000 ft ~40,000 ft Winds

METAR

EFKE 220220Z 00000KT CAVOK 05/03 Q1023

TAF

Not found

Frequencies

Recorded 123.15 MHz ATIS
Tower 119.40 MHz TWR
Tower 119.70 MHz TWR
Warning: Do not use this data for real-world aviation or navigation. No guarantee of current accuracy is given.